Weather observations for the past three days for
Winona, Winona Municipal Airport-Max Conrad Field
Metric (Imperial)
Date Time (cdt) Wind (kph) Vis. (km) Weather Sky Cond. Temperature (ºC) Relative Humidity Wind Chill (°C) Heat Index (°C) Pressure Precipitation (cm)
Air Dwpt 6 hour altimeter (cm) sea level (mb) 1 hr 3 hr 6 hr
Max. Min.
04 21:05 NW 30 16.09 Fair CLR 12 -3 35% 75.29 0.0
04 20:46 W 20 16.09 Fair CLR 12 -2 38% 75.26 0.0
04 20:27 NW 26 16.09 Fair CLR 13 -2 36% 75.21 0.0
04 20:09 W 22 16.09 Fair CLR 13 -2 36% 75.18 0.0
04 19:20 W 28 16.09 Fair CLR 14 -2 33% 75.13 0.0
04 19:05 NW 28 16.09 Fair CLR 15 -2 31% 75.11 0.0
04 18:42 NW 30 16.09 Fair CLR 16 -1 31% 75.11 0.0
04 18:22 W 19 16.09 Fair CLR 16 -2 29% 75.08 0.0
04 18:02 W 28 16.09 Fair CLR 17 -1 30% 75.06 0.0
04 17:42 W 24 16.09 Fair CLR 17 -1 30% 75.03 0.0
04 17:22 W 28 16.09 Fair CLR 17 -2 27% 75.03 0.0
04 17:02 NW 26 16.09 Fair CLR 17 -4 24% 75.01 0.0
04 16:42 W 28 16.09 Fair CLR 18 -4 22% 74.98 0.0
04 16:24 NW 31 16.09 Fair CLR 18 -4 22% 74.96 0.0
04 16:05 NW 35 16.09 Fair and Breezy CLR 19 -3 22% 74.96 0.0
04 15:47 W 15 16.09 Fair CLR 19 -4 21% 0 0.0
04 14:02 NW 24 16.09 Fair CLR 20 0 26% 74.88 0.0
04 13:42 NW 19 16.09 Fair CLR 20 0 26% 74.88 0.0
04 13:10 W 15 16.09 Fair CLR 21 2 29% 74.85 0.0
04 12:51 NW 28 16.09 Fair CLR 21 2 29% 74.83 0.0
04 12:24 W 22 16.09 Fair CLR 20 4 35% 74.83 0.0
04 12:04 W 20 16.09 Fair CLR 21 4 33% 74.85 0.0
04 11:45 W 17 16.09 Fair CLR 20 4 35% 74.85 0.0
04 11:28 NW 22 16.09 Fair CLR 20 5 38% 74.83 0.0
04 11:11 W 20 16.09 Fair CLR 20 4 35% 74.83 0.0
04 10:50 W 17 16.09 Fair CLR 20 4 35% 74.83 0.0
04 10:32 W 22 16.09 Fair CLR 20 4 35% 74.83 0.0
04 10:04 W 19 16.09 Mostly Cloudy BKN010 19 4 37% 74.83 0.0
04 09:44 W 17 16.09 Mostly Cloudy BKN110 19 3 35% 74.83 0.0
04 09:22 W 19 16.09 Partly Cloudy SCT110 20 3 33% 74.8 0.0
04 09:03 W 13 16.09 Fair CLR 19 3 35% 74.8 0.0
04 08:44 SW 13 16.09 Fair CLR 18 2 34% 74.8 0.0
04 08:04 SW 20 16.09 Fair CLR 16 1 36% 74.83 0.0
04 07:46 SW 17 16.09 Fair CLR 15 1 39% 74.83 0.0
04 07:30 SW 19 16.09 Fair CLR 14 1 41% 74.83 0.0
04 07:03 SW 20 16.09 Fair CLR 14 0 39% 74.83 0.0
04 06:40 SW 24 16.09 Fair CLR 13 0 41% 74.85 0.0
04 06:21 SW 17 16.09 Fair CLR 13 0 41% 74.85 0.0
04 06:03 SW 17 16.09 Fair CLR 14 0 39% 74.85 0.0
04 05:42 SW 15 16.09 Fair CLR 14 0 39% 74.88 0.0
04 05:27 SW 11 16.09 Fair CLR 14 0 39% 74.9 0.0
04 05:09 SW 11 16.09 Fair CLR 13 0 41% 74.93 0.0
04 04:50 SW 13 16.09 Fair CLR 13 0 41% 74.93 0.0
04 04:22 SW 15 16.09 Fair CLR 14 0 39% 74.98 0.0
04 04:02 SW 17 16.09 Fair CLR 14 0 39% 74.98 0.0
04 03:44 SW 11 16.09 Fair CLR 14 0 39% 75.03 0.0
04 03:24 SW 13 16.09 Fair CLR 13 0 41% 75.03 0.0
04 03:06 SW 7 16.09 Fair CLR 12 1 47% 75.06 0.0
04 02:44 Calm 16.09 Fair CLR 9 4 71% 75.11 0.0
04 02:24 Calm 16.09 Fair CLR 9 5 76% 75.11 0.0
04 02:09 Calm 16.09 Fair CLR 7 4 81% 75.13 0.0
04 01:51 Calm 16.09 Fair CLR 9 4 71% 75.16 0.0
04 01:22 Calm 16.09 Fair CLR 8 3 71% 75.18 0.0
04 01:04 Calm 16.09 Fair CLR 8 3 71% 75.21 0.0
04 00:32 Calm 16.09 Fair CLR 9 3 66% 75.23 0.0
04 00:04 Calm 16.09 Fair CLR 9 4 71% 75.26 0.0
03 23:44 Calm 16.09 Fair CLR 10 6 76% 75.29 0.0
03 23:26 Calm 16.09 Fair CLR 10 4 67% 75.31 0.0
03 23:04 Calm 16.09 Fair CLR 11 2 54% 0 0.0
03 22:32 Calm 16.09 Fair CLR 10 3 62% 75.34 0.0
03 22:03 Calm 16.09 Fair CLR 12 3 54% 75.36 0.0
03 21:44 Calm 16.09 Fair CLR 14 0 39% 75.36 0.0
03 21:11 SW 6 16.09 Fair CLR 15 2 42% 75.36 0.0
03 20:47 Calm 16.09 Fair CLR 17 -1 30% 75.36 0.0
03 20:20 W 7 16.09 Fair CLR 19 -2 24% 75.34 0.0
03 20:01 W 6 16.09 Fair CLR 20 -2 23% 75.34 0.0
03 19:41 W 9 16.09 Fair CLR 20 -2 23% 75.34 0.0
03 19:22 NW 15 16.09 Fair CLR 20 -3 21% 75.34 0.0
03 18:48 W 17 16.09 Fair CLR 21 -2 21% 75.31 0.0
03 18:32 NW 19 16.09 Fair CLR 21 -1 23% 75.31 0.0
03 17:37 NW 19 16.09 Fair CLR 22 3 29% 75.31 0.0
03 16:41 NW 26 16.09 Fair CLR 22 2 27% 75.31 0.0
03 16:21 NW 24 16.09 Fair CLR 22 2 27% 75.31 0.0
03 16:04 NW 24 16.09 Fair CLR 22 2 27% 75.34 0.0
03 15:42 NW 28 16.09 Fair CLR 22 2 27% 75.36 0.0
03 15:24 N 24 16.09 Fair CLR 22 3 29% 0 0.0
03 15:04 N 20 16.09 Fair CLR 22 3 29% 75.36 0.0
03 14:47 NW 22 16.09 Fair CLR 22 4 31% 75.36 0.0
03 14:30 NW 24 16.09 Fair CLR 21 4 33% 75.36 0.0
03 14:03 NW 22 16.09 Fair CLR 21 3 31% 75.36 0.0
03 13:42 NW 17 16.09 Fair CLR 21 4 33% 75.39 0.0
03 13:23 N 17 16.09 Fair CLR 21 5 35% 75.39 0.0
03 13:05 NW 15 16.09 Fair CLR 21 4 33% 75.39 0.0
03 12:45 W 9 16.09 Fair CLR 20 3 33% 75.41 0.0
03 12:28 NW 11 16.09 Fair CLR 20 4 35% 75.41 0.0
03 12:00 W 7 16.09 Fair CLR 19 3 35% 75.44 0.0
03 11:41 W 9 16.09 Fair CLR 19 3 35% 75.44 0.0
03 11:24 W 7 16.09 Fair CLR 19 3 35% 75.44 0.0
03 11:05 W 9 16.09 Fair CLR 18 2 34% 75.44 0.0
03 10:47 SW 11 16.09 Fair CLR 18 2 34% 75.44 0.0
03 10:24 SW 13 16.09 Fair CLR 17 1 34% 75.44 0.0
03 10:05 SW 17 16.09 Fair CLR 17 1 34% 75.44 0.0
03 09:47 SW 11 16.09 Fair CLR 17 1 34% 0 0.0
03 09:31 SW 9 1.61 Fair CLR 17 1 34% 75.46 0.0
03 09:01 W 19 16.09 Fair CLR 16 0 34% 75.46 0.0
03 08:45 SW 17 16.09 Fair CLR 15 0 36% 75.46 0.0
03 08:30 SW 15 16.09 Fair CLR 15 0 36% 75.46 0.0
03 08:01 SW 15 16.09 Partly Cloudy SCT100 14 1 41% 0 0.0
03 07:42 SW 17 16.09 Partly Cloudy SCT100 14 1 41% 0 0.0
03 07:25 SW 17 16.09 Fair CLR 14 1 41% 0 0.0
03 07:05 SW 9 16.09 Partly Cloudy SCT110 14 1 41% 0 0.0
03 06:06 S 9 16.09 Partly Cloudy SCT120 13 0 41% 75.46 0.0
03 05:50 S 9 16.09 Fair CLR 14 0 39% 75.46 0.0
03 05:25 SW 22 16.09 Mostly Cloudy BKN110 14 0 39% 75.49 0.0
03 04:53 SW 19 16.09 Overcast SCT070 SCT085 OVC110 14 0 39% 75.54 0.0
03 04:22 SW 22 16.09 Partly Cloudy SCT110 14 0 39% 0 0.0
03 04:02 SW 19 16.09 Partly Cloudy SCT080 SCT010 SCT010 13 0 41% 75.59 0.0
03 03:42 SW 17 16.09 Overcast SCT080 OVC110 13 -1 38% 75.62 0.0
03 03:22 SW 13 16.09 Mostly Cloudy BKN110 13 -1 38% 75.67 0.0
03 03:07 SW 13 16.09 Fair CLR 13 -2 36% 75.67 0.0
03 02:48 SW 11 16.09 Fair CLR 13 -2 36% 75.67 0.0
03 02:31 SW 13 16.09 Fair CLR 13 -2 36% 75.69 0.0
03 02:15 SW 15 16.09 Partly Cloudy SCT120 13 -1 38% 75.69 0.0
03 01:42 SW 6 16.09 Overcast SCT070 SCT085 OVC010 13 -1 38% 75.74 0.0
03 01:22 SW 7 16.09 Overcast SCT100 OVC120 14 -2 33% 75.74 0.0
03 01:03 SW 9 16.09 Overcast OVC010 13 -1 38% 75.74 0.0
03 00:42 SW 6 16.09 Overcast OVC090 14 -1 36% 75.79 0.0
03 00:07 Calm 16.09 Overcast SCT100 OVC120 14 -1 36% 75.82 0.0
02 23:50 W 7 16.09 Mostly Cloudy BKN120 14 -2 33% 75.82 0.0
02 23:20 SW 9 16.09 Fair CLR 15 -2 31% 75.82 0.0
02 23:00 SW 9 16.09 Partly Cloudy SCT010 15 -2 31% 75.84 0.0
02 22:41 SW 11 16.09 Mostly Cloudy BKN100 15 -2 31% 75.84 0.0
02 22:25 SW 11 16.09 Partly Cloudy SCT010 SCT010 16 -2 29% 75.87 0.0
02 22:06 SW 7 16.09 Mostly Cloudy BKN100 16 -2 29% 75.87 0.0
02 21:48 SW 13 16.09 Mostly Cloudy BKN100 BKN120 16 -2 29% 75.9 0.0
02 21:02 W 11 16.09 Overcast OVC100 16 -1 31% 75.9 0.0
02 20:41 SW 7 16.09 Mostly Cloudy BKN110 16 -2 29% 75.9 0.0
02 20:23 W 6 16.09 Partly Cloudy SCT120 17 -2 27% 75.9 0.0
02 20:03 SW 13 16.09 Partly Cloudy SCT075 SCT090 17 -2 27% 75.9 0.0
02 19:48 W 13 16.09 Overcast OVC090 17 -2 27% 75.9 0.0
02 19:29 SW 6 16.09 Overcast BKN090 OVC110 17 -2 27% 75.92 0.0
02 19:04 W 6 16.09 Mostly Cloudy BKN110 17 -2 27% 75.95 0.0
02 18:44 W 6 16.09 Mostly Cloudy BKN010 17 -2 27% 75.95 0.0
02 18:26 W 9 16.09 Mostly Cloudy BKN110 17 -3 25% 75.97 0.0
02 18:05 NW 13 16.09 Partly Cloudy SCT110 17 -2 27% 75.97 0.0
02 17:46 W 7 16.09 Partly Cloudy SCT010 17 -3 25% 76 0.0
02 17:27 W 13 16.09 Fair CLR 17 -3 25% 76 0.0
02 17:06 W 17 16.09 Fair CLR 17 -4 24% 76 0.0
02 16:45 NW 19 16.09 Partly Cloudy SCT090 17 -3 25% 76.02 0.0
02 16:28 SW 15 16.09 Partly Cloudy SCT090 17 -3 25% 76.05 0.0
02 16:09 SW 13 16.09 Partly Cloudy SCT990 18 -3 24% 76.07 0.0
02 15:52 W 7 16.09 Partly Cloudy SCT090 17 -4 24% 76.1 0.0
02 15:21 NW 17 16.09 Partly Cloudy SCT090 17 -4 24% 76.12 0.0
02 15:04 W 17 16.09 Partly Cloudy SCT090 16 -5 23% 76.15 0.0
02 14:42 SW 11 16.09 Fair CLR 16 -2 29% 76.17 0.0
02 14:27 SW 17 16.09 Fair CLR 16 -4 25% 76.17 0.0
02 14:09 W 9 16.09 Fair CLR 15 -5 25% 76.23 0.0
02 13:44 NW 11 16.09 Fair CLR 15 -4 27% 76.25 0.0
02 13:23 W 15 16.09 Fair CLR 15 -4 27% 76.28 0.0
02 13:02 NW 7 16.09 Fair CLR 15 -4 27% 76.28 0.0
02 12:45 W 11 16.09 Partly Cloudy SCT080 15 -5 25% 76.3 0.0
02 12:29 NW 20 16.09 Partly Cloudy SCT080 15 -4 27% 76.3 0.0
02 12:01 W 7 16.09 Partly Cloudy SCT080 14 -4 29% 76.35 0.0
02 11:44 W 15 16.09 Partly Cloudy SCT070 14 -5 27% 76.35 0.0
02 10:53 W 7 16.09 Partly Cloudy SCT070 14 -3 31% 76.38 0.0
02 10:21 N 11 16.09 Fair CLR 13 -1 38% 76.4 0.0
02 10:02 N 7 16.09 Fair CLR 12 0 44% 76.4 0.0
02 09:44 W 11 16.09 Fair CLR 12 -1 41% 76.43 0.0
02 09:23 NW 13 16.09 Fair CLR 11 -1 44% 76.43 0.0
02 09:06 NW 11 16.09 Fair CLR 10 -1 47% 9 76.45 0.0
02 08:33 Calm 16.09 Fair CLR 7 0 61% 76.45 0.0
02 08:02 Calm 16.09 Fair CLR 5 1 76% 76.45 0.0
02 07:43 Calm 16.09 Fair CLR 4 0 75% 76.45 0.0
02 07:23 Calm 16.09 Fair CLR 2 0 87% 76.45 0.0
02 07:02 NW 6 16.09 Fair CLR 1 -1 87% 76.45 0.0
02 06:42 NW 7 16.09 Fair CLR 0 -2 87% -2 76.45 0.0
02 06:22 NW 6 16.09 Fair CLR 0 -2 87% 76.45 0.0
02 06:03 Calm 16.09 Fair CLR -1 -2 93% 76.45 0.0
02 05:43 NW 6 16.09 Fair CLR -1 -2 93% 76.45 0.0
02 05:23 Calm 16.09 Fair CLR 0 -1 93% 76.45 0.0
02 05:06 Calm 16.09 Fair CLR 0 -2 87% 76.45 0.0
02 04:49 Calm 16.09 Fair CLR 0 -2 87% 76.45 0.0
02 04:20 Calm 16.09 Fair CLR 0 -2 87% 76.45 0.0
02 04:00 Calm 16.09 Fair CLR 0 -1 93% 76.45 0.0
02 03:42 Calm 16.09 Fair CLR 0 -2 87% 76.45 0.0
02 03:22 NW 6 16.09 Fair CLR 1 -1 87% 76.45 0.0
02 03:06 Calm 16.09 Partly Cloudy SCT095 1 -2 81% 76.45 0.0
02 02:32 Calm 16.09 Partly Cloudy SCT095 0 -3 80% 76.45 0.0
02 02:04 Calm 16.09 Fair CLR 1 -2 81% 76.45 0.0
02 01:43 Calm 16.09 Fair CLR 2 -2 75% 76.45 0.0
02 01:23 NW 6 16.09 Fair CLR 2 -1 81% 76.45 0.0
02 01:04 Calm 16.09 Fair CLR 2 -1 81% 76.45 0.0
02 00:44 Calm 16.09 Fair CLR 3 -1 75% 76.45 0.0
02 00:25 Calm 16.09 Fair CLR 3 -1 75% 76.45 0.0
02 00:08 Calm 16.09 Fair CLR 3 -1 75% 76.45 0.0
01 23:41 NW 6 16.09 Fair CLR 3 -2 70% 76.45 0.0
01 23:17 Calm 16.09 Fair CLR 5 -2 61% 76.45 0.0
01 22:56 Calm 16.09 Fair CLR 5 -2 61% 76.45 0.0
01 21:51 Calm 16.09 Fair CLR 6 -3 53% 76.45 0.0
01 21:23 Calm 16.09 Fair CLR 7 -3 49% 76.43 0.0
Date Time (cdt) Wind (kph) Vis. (km) Weather Sky Cond. Air Dwpt Max. Min. Relative Humidity Wind Chill (°C) Heat Index (°C) altimeter (cm) sea level (mb) 1 hr 3 hr 6 hr
6 hour
Temperature (ºC) Pressure Precipitation (cm)